CAPE
2190 2170 2004 2080 1819 1774 1456 1333 1168 1033 1099 1149 1048 1057 1013 611 794 664 82 37 623 833 881 485 310 152 44 79 139 178 199 154 165 128 56 59 49 37 24 25 19 3 26
2146 2333 2262 2048 1864 1712 1572 1546 1350 1171 1192 938 1023 1062 1109 775 554 622 440 81 340 651 768 1010 623 189 148 158 144 142 214 205 226 150 41 43 39 34 36 17 14 13 9
2363 2347 2279 2169 2047 1794 1803 1692 1717 1249 1190 1213 1100 984 1036 955 939 554 570 249 5 90 206 572 588 646 655 349 187 140 337 207 202 169 66 35 38 32 31 23 20 7 28
2412 2465 2300 2046 2170 2148 1939 1632 1390 1233 1181 1170 940 1014 782 656 803 730 455 546 172 82 1 51 204 547 573 654 283 178 323 270 167 129 51 28 21 36 30 33 23 18 19
2445 2537 2085 2265 2085 2176 2131 1956 1698 1447 1365 1252 1012 1108 730 783 835 740 564 492 254 188 85 4 3 190 242 394 540 172 173 265 199 160 81 23 27 17 32 35 28 6 5
1778 2180 2212 2207 2470 2059 2049 2079 1985 1922 1507 1196 1068 944 890 824 901 852 638 669 490 333 281 215 0 0 43 145 296 453 298 181 171 106 104 46 29 18 26 33 27 8 9
1684 1807 2305 1871 1646 2140 2014 1994 1936 1538 1374 1302 1148 1095 1006 835 676 723 730 540 543 411 329 291 105 24 0 0 64 471 476 336 293 195 128 33 26 17 24 20 23 22 7
1734 1682 2184 1739 1468 1334 1683 1469 1421 1253 1102 1296 1106 894 731 764 823 759 734 640 439 339 309 286 256 177 128 0 0 95 498 641 616 412 152 20 11 14 15 31 26 26 29
2033 1707 1695 1754 1278 1138 1029 1264 1222 1086 965 938 1249 674 444 266 246 638 631 574 433 457 338 228 182 238 119 94 17 0 10 64 189 394 191 51 15 13 11 19 29 26 36
1844 1731 1397 1311 1538 983 807 977 1220 1044 867 702 1002 1026 781 953 444 399 730 503 387 349 462 412 219 194 187 143 117 48 0 0 0 69 124 106 77 37 31 30 26 17 38
1393 1754 1268 1214 1676 1104 901 1392 1293 1109 1012 706 661 624 646 706 955 683 278 496 372 248 278 312 206 148 222 139 84 107 0 0 0 0 54 87 116 85 62 57 58 23 39
1562 1695 1383 1317 1376 1670 1400 1131 1353 1169 883 775 670 447 543 603 665 745 396 237 260 277 137 107 106 135 121 131 146 121 0 0 0 0 1 26 63 93 102 100 64 56 42
206 379 1446 1618 1579 1814 2009 1822 1495 1169 996 737 772 637 511 653 706 570 245 237 266 129 145 105 129 194 149 142 113 35 0 0 0 0 0 0 15 49 67 70 64 82 43
3 0 6 944 1424 1689 1845 1813 1479 1367 1034 752 947 795 840 782 516 347 351 248 116 69 89 68 42 81 92 115 123 100 0 1 1 0 0 0 0 1 22 55 50 19 29
5 4 7 2 52 1339 1436 1214 1082 1278 1188 1146 1014 1014 825 435 663 400 264 198 105 56 48 101 105 35 73 92 79 0 0 0 1 1 0 0 0 0 0 2 0 0 6
5 3 7 4 5 1 133 801 947 972 1090 1155 1157 1075 905 945 808 385 213 139 65 55 22 72 93 28 29 62 64 10 2 0 1 1 1 0 0 0 0 0 0 0 0
3 3 3 3 3 3 0 1 0 106 585 923 1001 1053 882 770 731 453 346 316 300 232 119 85 68 22 13 7 15 4 2 0 0 1 1 1 0 0 0 0 0 0 0
2 4 2 3 2 2 3 1 1 1 3 5 612 653 655 686 813 659 384 309 83 289 236 148 99 0 16 20 36 0 2 0 4 1 1 1 0 0 0 0 0 0 0
5 3 2 3 3 4 3 2 1 3 3 6 7 2 89 463 359 306 260 279 261 351 247 210 101 3 7 9 0 0 0 0 2 1 1 1 1 1 1 0 0 0 0
6 7 6 5 7 5 4 3 5 3 1 2 7 5 8 3 4 6 39 99 141 154 79 65 42 2 2 0 0 0 0 0 1 1 0 0 0 0 1 1 1 1 1
7 7 8 5 4 4 4 3 6 4 5 3 3 4 17 8 5 3 4 1 4 84 81 44 30 4 0 0 0 0 0 0 0 0 0 0 0 0 0 1 0 1 0
3 2 2 6 5 5 2 1 2 4 5 7 3 3 3 3 3 1 0 0 0 2 6 48 26 3 3 0 0 0 0 0 0 0 0 1 0 1 1 0 0 1 1
6 6 6 6 6 4 7 3 0 5 3 4 4 5 4 3 3 4 0 0 0 0 0 3 3 12 10 0 0 0 1 0 0 0 0 1 0 0 0 0 0 0 1
4 6 7 6 7 6 4 6 4 4 6 4 5 4 4 4 6 5 3 1 1 0 1 1 2 2 2 0 0 0 0 0 0 1 0 0 0 0 0 0 0 0 0
8 9 12 7 3 1 6 4 0 0 0 0 0 2 3 2 8 7 3 3 1 0 0 0 0 0 1 1 1 0 0 1 1 1 1 0 0 0 0 0 0 2 2
2 4 5 7 6 5 6 8 5 2 0 0 0 0 3 0 1 5 4 3 1 1 1 0 0 0 0 0 0 0 0 0 0 1 0 0 0 0 0 0 0 0 0
CIN
-6 -10 -7 -7 -11 -7 -26 -18 -26 -39 -21 -21 -14 -8 -18 -27 -24 -89 -227 -185 -71 -35 -4 -7 -12 -23 -44 -36 -14 -4 -3 -6 -4 -9 -17 -23 -9 -5 -1 -1 -1 -0 -1
-9 -7 -10 -6 -9 -16 -16 -19 -21 -24 -24 -17 -17 -7 -14 -27 -29 -86 -131 -170 -106 -48 -24 -0 -1 -13 -18 -13 -15 -25 -3 -2 -2 -6 -21 -32 -11 -4 -4 -1 -1 -1 -0
-10 -7 -15 -6 -7 -19 -14 -19 -37 -22 -37 -28 -21 -21 -10 -14 -20 -35 -123 -131 -156 -118 -82 -28 -8 -0 -0 -9 -17 -24 -4 -4 -3 -5 -29 -37 -12 -7 -7 -3 -1 -1 -1
-11 -8 -18 -23 -11 -17 -18 -20 -29 -21 -18 -27 -26 -21 -14 -15 -12 -15 -73 -90 -127 -103 -135 -106 -46 -10 -6 -4 -7 -15 -19 -18 -3 -5 -20 -28 -27 -8 -8 -7 -2 -1 -1
-21 -10 -9 -13 -24 -10 -7 -6 -15 -20 -9 -14 -29 -25 -25 -23 -21 -16 -17 -33 -102 -102 -98 -67 -67 -44 -32 -14 -0 -12 -5 -4 -20 -0 -14 -63 -156 -16 -10 -6 -5 -0 -0
-83 -24 -10 -26 -10 -14 -13 -5 -5 -7 -11 -10 -8 -31 -35 -28 -14 -24 -19 -14 -26 -35 -43 -64 -0 -0 -58 -42 -15 -1 -0 -1 -19 -5 -1 -48 -125 -16 -13 -7 -3 -1 -0
-136 -54 -12 -70 -54 -5 -9 -13 -12 -24 -23 -13 -13 -11 -18 -29 -47 -41 -30 -28 -22 -22 -20 -34 -89 -115 -0 -0 -48 -1 -0 -0 -0 -7 -0 -11 -9 -19 -12 -7 -1 -1 -0
-98 -93 -21 -93 -101 -62 -29 -68 -45 -35 -32 -16 -8 -8 -11 -17 -33 -44 -35 -27 -58 -65 -73 -49 -55 -63 -41 -0 -0 -39 -1 -0 -0 -0 -5 -10 -42 -17 -19 -11 -3 -1 -1
-75 -110 -78 -49 -129 -111 -95 -76 -75 -68 -63 -52 -10 -36 -27 -85 -73 -91 -90 -77 -64 -40 -53 -77 -72 -57 -51 -39 -75 -0 -24 -18 -13 -0 -11 -5 -18 -14 -17 -14 -8 -3 -3
-39 -104 -111 -88 -60 -136 -133 -105 -74 -94 -91 -103 -33 -40 -53 -26 -16 -24 -62 -90 -97 -90 -42 -28 -60 -42 -26 -45 -27 -43 -0 -0 -1 -10 -1 -4 -1 -15 -9 -107 -111 -6 -4
-78 -49 -119 -98 -33 -130 -134 -55 -61 -68 -81 -81 -79 -76 -77 -62 -28 -13 -61 -24 -71 -123 -98 -83 -96 -86 -41 -43 -56 -31 -0 -0 -0 -0 -6 -1 -0 -9 -6 -30 -66 -146 -5
-7 -10 -92 -104 -61 -28 -63 -80 -41 -52 -86 -78 -67 -101 -114 -117 -94 -41 -55 -103 -66 -92 -180 -142 -147 -134 -125 -64 -25 -21 -0 -0 -0 -0 -44 -14 -2 -5 -5 -17 -23 -58 -8
-184 -105 -18 -17 -24 -12 -4 -14 -19 -40 -39 -74 -38 -98 -98 -101 -109 -78 -61 -53 -59 -50 -87 -90 -98 -86 -109 -83 -53 -17 -0 -0 -0 -0 -0 -1 -15 -7 -6 -8 -9 -35 -52
-0 -0 -0 -37 -23 -20 -14 -18 -25 -21 -28 -44 -18 -29 -23 -44 -78 -67 -48 -48 -46 -35 -85 -81 -85 -65 -90 -89 -77 -36 -0 -0 -0 -0 -0 -0 -0 -5 -25 -31 -34 -66 -29
-0 -0 -0 -0 -165 -20 -18 -35 -29 -23 -12 -5 -16 -9 -3 -73 -23 -45 -60 -69 -66 -11 -17 -48 -67 -101 -88 -93 -110 -0 -0 -0 -0 -0 -0 -0 -0 -0 -0 -70 -0 -0 -30
-0 -0 -0 -0 -0 -0 -63 -23 -12 -11 -1 -1 -1 -6 -9 -6 -19 -76 -83 -82 -121 -42 -21 -68 -71 -121 -71 -86 -109 -152 -42 -0 -0 -0 -0 -0 -0 -0 -0 -0 -0 -0 -0
-0 -0 -0 -0 -0 -0 -0 -0 -0 -19 -15 -1 -1 -1 -6 -30 -28 -54 -54 -46 -40 -43 -24 -63 -79 -100 -50 -43 -99 -146 -34 -0 -0 -0 -0 -0 -0 -0 -0 -0 -0 -0 -0
-0 -0 -0 -0 -0 -0 -0 -0 -0 -0 -0 -5 -8 -4 -9 -18 -1 -8 -27 -17 -1 -26 -24 -34 -89 -5 -93 -112 -67 -0 -199 -0 -9 -0 -0 -0 -0 -0 -0 -0 -0 -0 -0
-0 -0 -0 -0 -0 -0 -0 -0 -0 -0 -0 -0 -0 -0 -88 -11 -10 -13 -7 -6 -0 -9 -16 -3 -102 -117 -105 -84 -0 -0 -0 -0 -3 -2 -0 -0 -0 -0 -0 -0 -0 -0 -0
-0 -0 -0 -0 -0 -0 -0 -0 -0 -0 -0 -0 -0 -0 -0 -0 -0 -0 -13 -9 -1 -2 -12 -13 -34 -39 -44 -0 -0 -0 -0 -0 -2 -0 -0 -0 -0 -0 -0 -0 -0 -0 -0
-0 -0 -0 -0 -0 -0 -0 -0 -0 -0 -0 -0 -0 -0 -0 -0 -0 -0 -0 -0 -0 -3 -1 -3 -8 -25 -0 -0 -0 -0 -0 -0 -0 -0 -0 -0 -0 -0 -0 -0 -0 -0 -0
-0 -0 -0 -0 -0 -0 -0 -0 -0 -0 -0 -0 -0 -0 -0 -0 -0 -0 -0 -0 -0 -0 -0 -11 -20 -10 -4 -0 -0 -0 -0 -0 -0 -0 -0 -0 -0 -0 -0 -0 -0 -0 -0
-0 -0 -0 -0 -0 -0 -0 -0 -0 -0 -0 -0 -0 -0 -0 -0 -0 -0 -0 -0 -0 -0 -0 -0 -3 -14 -5 -0 -0 -0 -0 -0 -0 -0 -0 -0 -0 -0 -0 -0 -0 -0 -0
-0 -0 -0 -0 -0 -0 -0 -0 -0 -0 -0 -0 -0 -0 -0 -0 -0 -0 -0 -0 -0 -0 -0 -0 -0 -0 -0 -0 -0 -0 -0 -0 -0 -0 -0 -0 -0 -0 -0 -0 -0 -0 -0
-0 -0 -0 -0 -0 -0 -0 -0 -0 -0 -0 -0 -0 -0 -0 -0 -0 -0 -0 -0 -0 -0 -0 -0 -0 -0 -0 -0 -0 -0 -0 -0 -0 -0 -0 -0 -0 -0 -0 -0 -0 -0 -0
-1 -1 -1 -0 -0 -0 -0 -0 -0 -0 -0 -0 -0 -0 -0 -0 -0 -0 -0 -0 -0 -0 -0 -0 -0 -0 -0 -0 -0 -0 -0 -0 -0 -0 -0 -0 -0 -0 -0 -0 -0 -0 -0
Wind_Speed
6 7 7 7 8 8 7 7 7 8 6 6 7 6 6 3 5 4 5 12 14 17 18 16 16 16 15 14 13 9 14 15 16 16 15 15 13 12 11 11 11 12 10
7 8 7 7 7 7 7 6 6 7 5 4 4 5 4 4 3 8 6 8 14 14 16 15 18 18 16 16 15 15 16 17 18 18 17 17 14 12 13 13 12 11 12
9 11 9 7 7 6 8 6 6 5 4 4 6 4 3 4 4 5 8 7 9 13 13 12 17 18 17 19 17 14 15 16 18 19 17 18 16 14 14 14 13 14 10
11 8 9 8 7 7 6 6 5 5 5 5 4 4 4 3 4 4 8 6 7 7 9 12 13 15 17 18 19 17 17 18 19 19 17 17 19 16 16 16 15 14 13
10 6 6 8 9 5 5 5 5 5 5 4 5 5 4 4 4 3 5 7 8 7 6 12 15 14 15 16 19 19 19 20 20 19 19 17 20 20 18 17 16 17 16
15 10 7 6 5 7 6 5 6 4 5 5 7 7 7 6 4 4 5 5 6 7 7 7 7 8 14 16 19 19 20 21 22 23 20 19 18 19 20 18 17 18 17
17 14 7 8 8 6 9 7 4 4 3 2 1 2 3 5 5 5 5 5 6 6 6 6 7 6 7 16 18 20 22 23 24 23 22 21 20 20 19 20 18 18 18
16 17 11 12 12 10 5 7 7 4 5 5 3 1 3 3 5 8 7 6 8 7 9 9 8 9 6 8 13 20 22 22 23 23 23 22 23 22 21 19 20 18 18
18 18 18 9 11 10 11 8 10 11 7 5 7 5 2 5 4 7 11 8 7 5 7 8 10 10 8 6 10 15 18 18 21 24 24 23 22 22 22 21 21 20 19
15 18 16 14 11 11 12 11 10 10 8 9 4 7 5 1 2 2 2 6 6 6 5 4 5 6 6 7 11 13 17 18 17 20 25 24 23 23 23 22 22 21 21
16 15 14 13 10 10 12 10 13 12 10 7 6 4 9 8 6 5 3 4 3 4 5 5 5 5 6 7 6 10 16 20 18 19 22 25 25 24 24 24 23 23 22
10 14 16 15 14 9 12 13 11 14 11 10 7 9 8 6 10 7 5 7 5 6 9 7 8 7 8 6 8 12 16 18 21 21 20 23 25 26 25 25 25 24 23
6 11 12 9 7 8 10 11 9 12 12 10 12 10 9 10 6 7 6 4 3 4 5 7 7 8 6 5 6 10 15 18 19 20 18 19 20 23 25 25 26 26 25
6 21 21 5 6 2 6 6 7 7 11 10 14 13 8 9 6 7 5 5 3 5 3 6 5 7 8 6 8 12 7 17 19 21 21 20 21 21 22 22 24 24 25
11 9 11 14 16 4 5 4 4 4 7 10 13 12 11 9 8 8 5 4 5 7 8 6 5 8 7 6 8 8 9 14 18 20 20 20 21 25 23 22 21 21 22
13 10 18 15 14 17 12 3 4 5 8 7 9 12 13 12 11 7 8 8 9 12 11 5 5 5 9 6 9 10 10 12 18 18 19 20 21 22 23 22 22 21 20
17 18 15 17 15 15 16 13 13 9 8 11 10 12 15 11 7 8 8 8 9 7 9 7 6 6 7 7 6 7 7 8 8 19 20 21 21 23 21 21 21 21 20
15 14 18 16 16 16 14 14 13 12 11 14 11 10 11 10 12 9 6 7 8 9 8 14 7 4 6 6 9 10 7 7 9 14 21 22 22 21 20 20 20 20 20
16 17 20 16 17 17 16 14 11 11 11 12 12 16 14 10 9 7 8 8 12 9 8 10 10 5 6 4 5 5 7 9 8 12 20 22 22 21 19 18 16 16 17
18 15 16 16 17 17 17 15 13 13 12 13 14 15 14 16 18 16 8 10 10 11 10 10 9 9 5 4 6 8 5 7 8 8 9 13 19 22 20 17 17 17 15
15 16 15 16 16 17 16 17 15 17 16 13 14 15 14 18 20 16 9 12 14 12 11 12 11 8 7 4 11 6 8 6 8 4 5 6 7 8 9 13 13 17 18
20 18 19 19 21 16 33 33 16 14 14 16 14 14 14 21 23 25 24 18 12 9 13 12 11 12 14 12 8 9 9 6 5 4 6 3 1 4 3 6 12 14 17
15 15 18 17 19 21 32 30 23 9 13 13 17 18 14 13 19 20 22 20 19 16 9 11 14 14 14 15 10 10 11 10 8 6 6 4 1 2 2 3 6 9 12
17 15 17 18 15 17 32 31 21 14 12 13 12 13 15 16 21 22 17 16 15 11 12 10 11 13 13 3 11 13 14 11 4 2 5 5 2 3 2 2 5 5 8
14 15 14 16 18 17 32 31 22 15 14 14 14 13 16 16 27 29 16 16 15 12 11 11 10 11 15 18 15 5 9 5 2 4 1 5 4 4 2 2 2 9 11
14 11 13 14 21 17 29 32 26 11 15 12 14 14 23 21 26 27 15 14 15 15 15 14 10 9 10 9 15 7 8 9 6 1 6 6 4 6 3 1 1 2 5
Wind_Direction
197 186 182 177 181 174 194 176 187 195 211 213 178 207 206 222 146 131 139 178 171 170 174 187 190 188 189 190 197 220 195 183 179 173 173 144 154 156 172 170 163 171 165
200 189 196 187 184 179 185 177 197 182 184 166 228 225 233 216 219 150 155 187 180 183 183 190 191 194 199 201 204 211 204 191 185 180 173 150 156 168 167 177 177 178 171
207 191 190 194 190 195 175 178 183 171 183 174 190 211 233 238 190 172 156 174 195 199 193 189 193 202 203 204 205 209 206 195 187 183 179 159 163 171 174 171 181 183 179
202 199 184 191 189 198 185 182 187 179 189 182 169 196 192 251 253 229 157 167 182 202 211 208 210 207 201 209 207 211 206 190 190 185 183 178 162 173 175 172 177 184 189
214 220 199 187 188 194 183 184 192 189 177 178 183 179 195 222 222 206 197 166 180 182 196 207 210 206 204 211 205 210 208 200 193 190 187 187 170 173 179 179 178 192 193
204 218 195 178 181 193 200 180 195 203 186 185 187 190 194 195 196 207 206 200 191 193 185 177 191 213 209 206 207 210 210 209 205 197 192 187 180 176 181 185 188 194 198
190 209 194 181 196 215 196 183 149 182 241 215 232 175 195 202 203 208 203 210 193 195 198 191 176 193 203 208 209 213 215 216 207 204 196 189 186 181 189 184 192 197 199
185 199 209 186 188 209 219 165 175 179 209 205 190 136 224 243 211 210 210 209 210 200 202 205 189 190 192 195 214 215 217 222 212 206 199 195 186 186 185 190 187 198 196
180 191 201 186 177 187 206 193 189 194 192 203 210 166 194 228 192 199 213 213 227 209 200 194 204 193 193 182 202 212 213 217 219 211 201 197 193 190 189 189 189 194 198
179 181 186 196 182 183 200 201 194 200 186 200 197 234 270 347 292 23 177 210 208 214 219 208 178 199 193 190 196 202 202 209 214 221 206 196 195 192 195 192 191 191 198
197 173 170 187 211 181 194 202 191 196 202 202 191 164 229 252 235 215 244 184 208 203 213 200 204 200 196 209 193 204 203 201 207 211 209 204 197 196 196 196 197 192 202
181 178 179 182 200 203 195 206 179 191 201 201 194 203 205 185 219 207 210 219 187 204 198 208 209 215 212 194 197 196 196 202 204 210 207 204 200 198 198 200 197 199 199
57 356 177 168 188 198 216 187 182 185 201 191 220 207 223 227 204 221 229 230 196 257 185 200 199 197 194 188 201 196 199 201 202 202 197 199 203 205 202 203 203 202 201
296 31 341 26 159 217 242 183 196 189 195 206 210 223 227 231 227 216 203 179 203 234 235 199 188 189 189 177 193 200 195 204 201 202 197 199 203 201 204 202 206 206 205
4 2 1 16 348 198 201 202 225 203 210 208 218 221 227 241 233 229 213 173 165 249 239 218 184 207 190 179 186 183 204 196 204 206 207 202 203 204 197 200 202 206 206
60 26 25 18 15 11 350 214 203 225 234 230 228 227 229 229 231 229 219 221 222 234 246 206 218 186 188 179 186 192 199 175 201 207 206 203 199 205 201 199 199 202 204
30 37 35 29 23 16 11 8 5 348 264 247 248 236 239 242 226 233 232 232 236 229 231 244 236 209 184 175 171 195 191 194 198 210 208 209 208 204 199 199 199 201 202
45 29 52 28 21 16 14 13 3 357 340 346 271 244 247 249 245 242 243 243 288 240 225 240 215 233 219 204 192 187 192 208 214 202 212 210 204 199 198 201 201 199 202
48 45 47 33 26 17 10 10 4 2 357 354 354 6 318 254 250 240 247 240 233 240 242 238 239 196 225 190 178 176 190 206 219 219 205 205 201 195 194 195 200 210 214
45 51 47 42 34 23 14 7 22 21 26 23 9 9 357 17 10 353 296 242 242 243 233 229 231 235 199 197 187 194 204 216 221 216 210 211 205 195 192 197 197 202 209
47 43 47 43 40 31 18 8 23 23 17 20 18 19 3 1 2 6 351 339 317 247 235 230 223 219 201 177 206 189 214 209 205 173 178 197 190 188 199 199 208 206 210
39 33 30 36 34 23 13 13 15 24 19 19 10 15 2 2 359 349 345 332 294 308 294 241 220 230 226 219 195 199 206 193 199 191 176 186 122 159 163 188 193 190 202
45 42 38 36 36 27 22 11 13 21 30 12 17 14 4 7 358 351 340 346 335 335 289 281 285 244 233 215 190 193 207 207 196 176 158 173 83 101 52 113 183 205 200
34 37 37 33 32 28 23 19 15 18 18 19 21 12 8 4 6 355 347 349 348 7 7 9 7 344 338 266 188 196 207 202 61 38 159 155 156 101 23 56 119 176 163
31 33 36 34 31 27 23 20 19 18 14 16 17 8 13 10 8 4 4 352 345 351 352 339 353 28 5 6 21 256 205 174 156 204 204 121 160 111 79 20 86 120 119
32 26 29 34 30 25 19 19 20 13 10 8 8 10 13 12 10 10 10 3 357 344 342 346 1 358 12 3 32 21 336 202 156 141 206 123 144 139 135 165 48 88 123